Time,TemperatureF,DewpointF,PressureIn,WindDirection,WindDirectionDegrees,WindSpeedMPH,WindSpeedGustMPH,Humidity,HourlyPrecipIn,Conditions,Clouds,dailyrainin,SolarRadiationWatts/m^2,SoftwareType,DateUTC
2013-03-25 00:03:00,38.0,38.0,-100.00,NNE,18,3.0,5.0,100,0.08,,,0.48,0.000000,,2013-03-25 04:03:00,
2013-03-25 00:13:00,38.0,38.0,-100.00,NNE,18,3.0,5.0,100,0.08,,,0.48,0.000000,,2013-03-25 04:13:00,
2013-03-25 00:43:00,37.0,36.0,-100.00,East,85,2.0,5.0,98,0.02,,,0.50,0.000000,,2013-03-25 04:43:00,
2013-03-25 00:52:00,37.0,36.0,-100.00,East,85,2.0,5.0,98,0.02,,,0.50,0.000000,,2013-03-25 04:52:00,
2013-03-25 01:03:00,37.0,36.0,-100.00,East,85,2.0,5.0,98,0.02,,,0.50,0.000000,,2013-03-25 05:03:00,
2013-03-25 01:12:00,37.0,36.0,-100.00,East,85,2.0,5.0,98,0.02,,,0.50,0.000000,,2013-03-25 05:12:00,
2013-03-25 01:42:00,36.0,36.0,-100.00,SE,140,1.0,3.0,100,0.00,,,0.50,0.000000,,2013-03-25 05:42:00,
2013-03-25 01:53:00,36.0,36.0,-100.00,SE,140,1.0,3.0,100,0.00,,,0.50,0.000000,,2013-03-25 05:53:00,
2013-03-25 02:02:00,36.0,36.0,-100.00,SE,140,1.0,3.0,100,0.00,,,0.50,0.000000,,2013-03-25 06:02:00,
2013-03-25 02:12:00,36.0,36.0,-100.00,SE,140,1.0,3.0,100,0.00,,,0.50,0.000000,,2013-03-25 06:12:00,
2013-03-25 02:42:00,36.0,36.0,-100.00,ESE,118,2.0,9.0,100,0.12,,,0.62,0.000000,,2013-03-25 06:42:00,
2013-03-25 02:53:00,36.0,36.0,-100.00,ESE,118,2.0,9.0,100,0.12,,,0.62,0.000000,,2013-03-25 06:53:00,
2013-03-25 03:02:00,36.0,36.0,-100.00,ESE,118,2.0,9.0,100,0.12,,,0.62,0.000000,,2013-03-25 07:02:00,
2013-03-25 03:13:00,36.0,36.0,-100.00,ESE,118,2.0,9.0,100,0.12,,,0.62,0.000000,,2013-03-25 07:13:00,
2013-03-25 03:42:00,34.0,34.0,-100.00,East,87,0.0,4.0,100,0.06,,,0.68,0.000000,,2013-03-25 07:42:00,
2013-03-25 03:53:00,34.0,34.0,-100.00,East,87,0.0,4.0,100,0.06,,,0.68,0.000000,,2013-03-25 07:53:00,
2013-03-25 04:03:00,34.0,34.0,-100.00,East,87,0.0,4.0,100,0.06,,,0.68,0.000000,,2013-03-25 08:03:00,
2013-03-25 04:12:00,34.0,34.0,-100.00,East,87,0.0,4.0,100,0.06,,,0.68,0.000000,,2013-03-25 08:12:00,
2013-03-25 04:43:00,34.0,34.0,-100.00,East,90,1.0,4.0,100,0.02,,,0.70,0.000000,,2013-03-25 08:43:00,
2013-03-25 04:52:00,34.0,34.0,-100.00,East,90,1.0,4.0,100,0.02,,,0.70,0.000000,,2013-03-25 08:52:00,
2013-03-25 05:02:00,34.0,34.0,-100.00,East,90,1.0,4.0,100,0.02,,,0.70,0.000000,,2013-03-25 09:02:00,
2013-03-25 05:13:00,34.0,34.0,-100.00,East,90,1.0,4.0,100,0.02,,,0.70,0.000000,,2013-03-25 09:13:00,
2013-03-25 05:43:00,34.0,34.0,-100.00,SSW,202,3.0,12.0,100,0.00,,,0.70,0.000000,,2013-03-25 09:43:00,
2013-03-25 05:53:00,34.0,34.0,-100.00,SSW,202,3.0,12.0,100,0.00,,,0.70,0.000000,,2013-03-25 09:53:00,
2013-03-25 06:03:00,34.0,34.0,-100.00,SSW,202,3.0,12.0,100,0.00,,,0.70,0.000000,,2013-03-25 10:03:00,
2013-03-25 06:12:00,34.0,34.0,-100.00,SSW,202,3.0,12.0,100,0.00,,,0.70,0.000000,,2013-03-25 10:12:00,
2013-03-25 06:43:00,33.0,28.0,-100.00,WSW,249,5.0,11.0,81,0.00,,,0.70,0.000000,,2013-03-25 10:43:00,
2013-03-25 06:54:00,33.0,28.0,-100.00,WSW,249,5.0,11.0,81,0.00,,,0.70,0.000000,,2013-03-25 10:54:00,
2013-03-25 07:03:00,33.0,28.0,-100.00,WSW,249,5.0,11.0,81,0.00,,,0.70,0.000000,,2013-03-25 11:03:00,
2013-03-25 07:12:00,33.0,28.0,-100.00,WSW,249,5.0,11.0,81,0.00,,,0.70,0.000000,,2013-03-25 11:12:00,
2013-03-25 07:43:00,32.0,27.0,-100.00,SSW,201,4.0,9.0,82,0.00,,,0.68,0.000000,,2013-03-25 11:43:00,
2013-03-25 07:53:00,32.0,27.0,-100.00,SSW,201,4.0,9.0,82,0.00,,,0.68,0.000000,,2013-03-25 11:53:00,
2013-03-25 08:03:00,32.0,27.0,-100.00,SSW,201,4.0,9.0,82,0.00,,,0.68,0.000000,,2013-03-25 12:03:00,
2013-03-25 08:13:00,32.0,27.0,-100.00,SSW,201,4.0,9.0,82,0.00,,,0.68,0.000000,,2013-03-25 12:13:00,
2013-03-25 08:43:00,32.0,29.0,-100.00,SSW,198,4.0,11.0,90,0.00,,,0.64,7.000000,,2013-03-25 12:43:00,
2013-03-25 08:54:00,32.0,29.0,-100.00,SSW,198,4.0,11.0,90,0.00,,,0.64,7.000000,,2013-03-25 12:54:00,
2013-03-25 09:03:00,32.0,29.0,-100.00,SSW,198,4.0,11.0,90,0.00,,,0.64,7.000000,,2013-03-25 13:03:00,
2013-03-25 09:13:00,32.0,29.0,-100.00,SSW,198,4.0,11.0,90,0.00,,,0.64,7.000000,,2013-03-25 13:13:00,
2013-03-25 09:43:00,32.0,28.0,-100.00,West,263,3.0,10.0,84,0.00,,,0.58,29.000000,,2013-03-25 13:43:00,
2013-03-25 09:53:00,32.0,28.0,-100.00,West,263,3.0,10.0,84,0.00,,,0.58,29.000000,,2013-03-25 13:53:00,
2013-03-25 10:03:00,32.0,28.0,-100.00,West,263,3.0,10.0,84,0.00,,,0.58,29.000000,,2013-03-25 14:03:00,
2013-03-25 10:12:00,32.0,28.0,-100.00,West,263,3.0,10.0,84,0.00,,,0.58,29.000000,,2013-03-25 14:12:00,
2013-03-25 10:43:00,33.0,24.0,-100.00,WSW,251,7.0,16.0,70,0.01,,,0.53,82.000000,,2013-03-25 14:43:00,
2013-03-25 10:53:00,33.0,24.0,-100.00,WSW,251,7.0,16.0,70,0.01,,,0.53,82.000000,,2013-03-25 14:53:00,
2013-03-25 11:03:00,33.0,24.0,-100.00,WSW,251,7.0,16.0,70,0.01,,,0.53,82.000000,,2013-03-25 15:03:00,
2013-03-25 11:13:00,33.0,24.0,-100.00,WSW,251,7.0,16.0,70,0.01,,,0.53,82.000000,,2013-03-25 15:13:00,
2013-03-25 11:43:00,32.0,20.0,-100.00,West,273,5.0,16.0,62,0.03,,,0.52,163.000000,,2013-03-25 15:43:00,
2013-03-25 11:54:00,32.0,20.0,-100.00,West,273,5.0,16.0,62,0.03,,,0.52,163.000000,,2013-03-25 15:54:00,
2013-03-25 12:03:00,32.0,20.0,-100.00,West,273,5.0,16.0,62,0.03,,,0.52,163.000000,,2013-03-25 16:03:00,
2013-03-25 12:12:00,32.0,20.0,-100.00,West,273,5.0,16.0,62,0.03,,,0.52,163.000000,,2013-03-25 16:12:00,
2013-03-25 12:44:00,33.0,28.0,-100.00,West,268,5.0,14.0,81,0.04,,,0.56,235.000000,,2013-03-25 16:44:00,
2013-03-25 12:53:00,33.0,28.0,-100.00,West,268,5.0,14.0,81,0.04,,,0.56,235.000000,,2013-03-25 16:53:00,
2013-03-25 13:03:00,33.0,28.0,-100.00,West,268,5.0,14.0,81,0.04,,,0.56,235.000000,,2013-03-25 17:03:00,
2013-03-25 13:13:00,33.0,28.0,-100.00,West,268,5.0,14.0,81,0.04,,,0.56,235.000000,,2013-03-25 17:13:00,
2013-03-25 13:43:00,32.0,28.0,-100.00,West,259,2.0,14.0,86,0.01,,,0.55,171.000000,,2013-03-25 17:43:00,
2013-03-25 13:53:00,32.0,28.0,-100.00,West,259,2.0,14.0,86,0.01,,,0.55,171.000000,,2013-03-25 17:53:00,
2013-03-25 14:04:00,32.0,28.0,-100.00,West,259,2.0,14.0,86,0.01,,,0.55,171.000000,,2013-03-25 18:04:00,
2013-03-25 14:13:00,32.0,28.0,-100.00,West,259,2.0,14.0,86,0.01,,,0.55,171.000000,,2013-03-25 18:13:00,
2013-03-25 14:43:00,33.0,30.0,-100.00,West,262,6.0,15.0,87,0.02,,,0.47,260.000000,,2013-03-25 18:43:00,
2013-03-25 14:53:00,33.0,30.0,-100.00,West,262,6.0,15.0,87,0.02,,,0.47,260.000000,,2013-03-25 18:53:00,
2013-03-25 15:03:00,33.0,30.0,-100.00,West,262,6.0,15.0,87,0.02,,,0.47,260.000000,,2013-03-25 19:03:00,
2013-03-25 15:13:00,33.0,30.0,-100.00,West,262,6.0,15.0,87,0.02,,,0.47,260.000000,,2013-03-25 19:13:00,
2013-03-25 15:43:00,34.0,32.0,-100.00,SW,231,5.0,17.0,94,0.03,,,0.49,253.000000,,2013-03-25 19:43:00,
2013-03-25 15:53:00,34.0,32.0,-100.00,SW,231,5.0,17.0,94,0.03,,,0.49,253.000000,,2013-03-25 19:53:00,
2013-03-25 16:02:00,34.0,32.0,-100.00,SW,231,5.0,17.0,94,0.03,,,0.49,253.000000,,2013-03-25 20:02:00,
2013-03-25 16:12:00,34.0,32.0,-100.00,SW,231,5.0,17.0,94,0.03,,,0.49,253.000000,,2013-03-25 20:12:00,
2013-03-25 16:42:00,35.0,28.0,-100.00,West,274,6.0,15.0,76,0.00,,,0.49,311.000000,,2013-03-25 20:42:00,
2013-03-25 16:52:00,35.0,28.0,-100.00,West,274,6.0,15.0,76,0.00,,,0.49,311.000000,,2013-03-25 20:52:00,
2013-03-25 17:03:00,35.0,28.0,-100.00,West,274,6.0,15.0,76,0.00,,,0.49,311.000000,,2013-03-25 21:03:00,
2013-03-25 17:13:00,35.0,28.0,-100.00,West,274,6.0,15.0,76,0.00,,,0.49,311.000000,,2013-03-25 21:13:00,
2013-03-25 17:43:00,34.0,27.0,-100.00,SW,217,4.0,14.0,76,0.00,,,0.49,157.000000,,2013-03-25 21:43:00,
2013-03-25 17:52:00,34.0,27.0,-100.00,SW,217,4.0,14.0,76,0.00,,,0.49,157.000000,,2013-03-25 21:52:00,
2013-03-25 18:03:00,34.0,27.0,-100.00,SW,217,4.0,14.0,76,0.00,,,0.49,157.000000,,2013-03-25 22:03:00,
2013-03-25 18:13:00,34.0,27.0,-100.00,SW,217,4.0,14.0,76,0.00,,,0.49,157.000000,,2013-03-25 22:13:00,
2013-03-25 18:43:00,32.0,24.0,-100.00,West,273,6.0,17.0,73,0.01,,,0.50,73.000000,,2013-03-25 22:43:00,
2013-03-25 18:52:00,32.0,24.0,-100.00,West,273,6.0,17.0,73,0.01,,,0.50,73.000000,,2013-03-25 22:52:00,
2013-03-25 19:03:00,32.0,24.0,-100.00,West,273,6.0,17.0,73,0.01,,,0.50,73.000000,,2013-03-25 23:03:00,
2013-03-25 19:12:00,32.0,24.0,-100.00,West,273,6.0,17.0,73,0.01,,,0.50,73.000000,,2013-03-25 23:12:00,
2013-03-25 19:43:00,33.0,23.0,-100.00,West,263,5.0,16.0,66,0.00,,,0.50,42.000000,,2013-03-25 23:43:00,
2013-03-25 19:53:00,33.0,23.0,-100.00,West,263,5.0,16.0,66,0.00,,,0.50,42.000000,,2013-03-25 23:53:00,
2013-03-25 20:02:00,33.0,23.0,-100.00,West,263,5.0,16.0,66,0.00,,,0.50,42.000000,,2013-03-26 00:02:00,
2013-03-25 20:12:00,33.0,23.0,-100.00,West,263,5.0,16.0,66,0.00,,,0.50,42.000000,,2013-03-26 00:12:00,
2013-03-25 20:43:00,31.0,23.0,-100.00,WSW,250,5.0,16.0,73,0.00,,,0.50,1.000000,,2013-03-26 00:43:00,
2013-03-25 20:52:00,31.0,23.0,-100.00,WSW,250,5.0,16.0,73,0.00,,,0.50,1.000000,,2013-03-26 00:52:00,
2013-03-25 21:02:00,31.0,23.0,-100.00,WSW,250,5.0,16.0,73,0.00,,,0.50,1.000000,,2013-03-26 01:02:00,
2013-03-25 21:12:00,31.0,23.0,-100.00,WSW,250,5.0,16.0,73,0.00,,,0.50,1.000000,,2013-03-26 01:12:00,
2013-03-25 21:42:00,32.0,25.0,-100.00,SW,226,4.0,11.0,75,0.00,,,0.50,0.000000,,2013-03-26 01:42:00,
2013-03-25 21:53:00,32.0,25.0,-100.00,SW,226,4.0,11.0,75,0.00,,,0.50,0.000000,,2013-03-26 01:53:00,
2013-03-25 22:02:00,32.0,25.0,-100.00,SW,226,4.0,11.0,75,0.00,,,0.50,0.000000,,2013-03-26 02:02:00,
2013-03-25 22:12:00,32.0,25.0,-100.00,SW,226,4.0,11.0,75,0.00,,,0.50,0.000000,,2013-03-26 02:12:00,
2013-03-25 22:43:00,31.0,26.0,-100.00,WSW,252,3.0,9.0,80,0.00,,,0.45,0.000000,,2013-03-26 02:43:00,
2013-03-25 22:52:00,31.0,26.0,-100.00,WSW,252,3.0,9.0,80,0.00,,,0.45,0.000000,,2013-03-26 02:52:00,
2013-03-25 23:02:00,31.0,26.0,-100.00,WSW,252,3.0,9.0,80,0.00,,,0.45,0.000000,,2013-03-26 03:02:00,
2013-03-25 23:12:00,31.0,26.0,-100.00,WSW,252,3.0,9.0,80,0.00,,,0.45,0.000000,,2013-03-26 03:12:00,
2013-03-25 23:43:00,32.0,26.0,-100.00,SW,230,4.0,9.0,78,0.00,,,0.37,0.000000,,2013-03-26 03:43:00,
2013-03-25 23:53:00,32.0,26.0,-100.00,SW,230,4.0,9.0,78,0.00,,,0.37,0.000000,,2013-03-26 03:53:00,